Weather History for Jacksonville, TX

Change the Weather History Date:

Friday, November 30, 2012

  Actual Average (KTYR) Record (KTYR)
Temperature  
Mean Temperature 59 °F 51 °F  
Max Temperature 68 °F 60 °F 80 °F (1950)
Min Temperature 50 °F 42 °F 15 °F (1976)
Degree Days  
Heating Degree Days 6 14  
Month to date heating degree days 295  
Since 1 July heating degree days 374  
Cooling Degree Days 0 0  
Month to date cooling degree days 18  
Year to date cooling degree days 2411  
Growing Degree Days 9 (Base 50)    
Moisture  
Dew Point 56 °F    
Average Humidity 91    
Maximum Humidity 100    
Minimum Humidity 75    
Precipitation  
Precipitation 0.00 in 0.14 in 2.15 in (1991)
Month to date precipitation 4.10  
Year to date precipitation 41.55  
Snow  
Snow 0.00 in - - ()
Month to date snowfall  
Since 1 July snowfall  
Since 1 September snowfall  
Snow Depth -    
Sea Level Pressure  
Sea Level Pressure 30.17 in    
Wind  
Wind Speed 8 mph (SSE)    
Max Wind Speed 10 mph    
Max Gust Speed 16 mph    
Visibility 8 miles    
Events Fog    
T = Trace of Precipitation, MM = Missing Value Source: NWS Daily Summary

Daily Weather History Graph

Daily Weather History Graph

Search for Another Location

Airport:

Trip Planner

Search our weather history database for the weather conditions in past years. The results will help you decide how hot, cold, wet, or windy it might be!

Date:

Astronomy

Nov. 30, 2012 Rise Set
Actual Time 7:02 AM CST 5:16 PM CST
Civil Twilight 6:36 AM CST 5:43 PM CST
Nautical Twilight 6:06 AM CST 6:13 PM CST
Astronomical Twilight 5:36 AM CST 6:42 PM CST
Moon 7:11 PM CST (11/30) 8:35 AM CST (11/30)
Length of Visible Light 11h 06m
Length of Day
10h 13m
Waning Gibbous, 96% of the Moon is Illuminated
Nov 30
Waning Gibbous
Dec 6
Last Quarter
Dec 13
New
Dec 19
First Quarter
Dec 28
Full

Hourly Weather History & Observations

Time (CST) Temp. Dew Point Humidity Pressure Visibility Wind Dir Wind Speed Gust Speed Precip Events Conditions
12:15 AM 51.8 °F 47.3 °F 85% 30.21 in 10.0 mi South 9.2 mph - N/A   Clear
12:35 AM 51.4 °F 47.5 °F 86% 30.20 in 10.0 mi SSE 6.9 mph - N/A   Clear
12:55 AM 51.1 °F 47.8 °F 89% 30.20 in 10.0 mi SSE 9.2 mph - N/A   Clear
1:15 AM 50.5 °F 48.2 °F 92% 30.19 in 10.0 mi SSE 9.2 mph - N/A   Clear
1:35 AM 50.2 °F 48.2 °F 93% 30.19 in 10.0 mi SSE 9.2 mph - N/A   Clear
1:55 AM 50.9 °F 48.6 °F 92% 30.19 in 10.0 mi South 8.1 mph - N/A   Mostly Cloudy
2:15 AM 50.9 °F 48.4 °F 91% 30.19 in 10.0 mi SSE 9.2 mph - N/A   Mostly Cloudy
2:35 AM 50.9 °F 48.4 °F 91% 30.19 in 10.0 mi SSE 8.1 mph - N/A   Mostly Cloudy
2:55 AM 50.9 °F 48.6 °F 92% 30.19 in 10.0 mi SSE 10.4 mph - N/A   Overcast
3:15 AM 51.1 °F 48.9 °F 92% 30.19 in 10.0 mi SSE 9.2 mph - N/A   Overcast
3:35 AM 51.1 °F 49.1 °F 93% 30.18 in 10.0 mi SSE 8.1 mph - N/A   Overcast
3:55 AM 51.1 °F 49.3 °F 94% 30.18 in 10.0 mi SSE 10.4 mph - N/A   Overcast
4:15 AM 51.8 °F 50.4 °F 95% 30.18 in 7.0 mi SSE 9.2 mph - N/A   Overcast
4:35 AM 52.0 °F 50.5 °F 95% 30.18 in 7.0 mi SSE 10.4 mph - N/A   Overcast
4:55 AM 51.8 °F 51.1 °F 97% 30.17 in 4.0 mi SSE 9.2 mph - N/A   Overcast
5:15 AM 52.2 °F 51.4 °F 97% 30.17 in 7.0 mi SSE 10.4 mph - N/A   Overcast
5:35 AM 52.3 °F 51.8 °F 98% 30.17 in 5.0 mi SSE 9.2 mph - N/A   Overcast
5:55 AM 52.3 °F 51.8 °F 98% 30.17 in 4.0 mi SSE 9.2 mph - N/A   Overcast
6:15 AM 52.5 °F 52.0 °F 98% 30.18 in 1.8 mi SSE 9.2 mph - N/A   Overcast
6:35 AM 52.7 °F 52.3 °F 99% 30.19 in 0.5 mi SSE 8.1 mph - N/A Fog Fog
6:55 AM 52.7 °F 52.3 °F 99% 30.19 in 0.5 mi SSE 8.1 mph - N/A Fog Fog
7:15 AM 52.7 °F 52.7 °F 100% 30.20 in 0.2 mi SSE 5.8 mph - N/A Fog Fog
7:35 AM 52.7 °F 52.7 °F 100% 30.20 in 0.2 mi SSE 6.9 mph - N/A Fog Fog
7:55 AM 52.7 °F 52.7 °F 100% 30.20 in 0.2 mi SSE 8.1 mph - N/A Fog Fog
8:15 AM 53.2 °F 53.2 °F 100% 30.20 in 0.2 mi SSE 9.2 mph - N/A Fog Fog
8:35 AM 53.8 °F 53.8 °F 100% 30.21 in 0.2 mi SSW 5.8 mph - N/A   Light Drizzle
8:55 AM 54.1 °F 54.1 °F 100% 30.21 in 0.2 mi SSE 8.1 mph - N/A Fog Fog
9:15 AM 54.5 °F 54.5 °F 100% 30.21 in 0.8 mi SSE 6.9 mph - N/A   Light Drizzle
9:35 AM 55.4 °F 55.4 °F 100% 30.22 in 1.2 mi SSE 6.9 mph - N/A   Overcast
9:55 AM 56.3 °F 56.3 °F 100% 30.22 in 2.5 mi SSE 8.1 mph - N/A   Overcast
10:15 AM 57.2 °F 57.2 °F 100% 30.23 in 4.0 mi SSE 9.2 mph - N/A   Overcast
10:35 AM 57.9 °F 57.9 °F 100% 30.23 in 5.0 mi SSE 6.9 mph - N/A   Overcast
10:55 AM 60.1 °F 59.2 °F 97% 30.22 in 10.0 mi South 8.1 mph - N/A   Overcast
11:15 AM 60.4 °F 57.9 °F 91% 30.22 in 10.0 mi South 8.1 mph - N/A   Overcast
11:35 AM 60.8 °F 58.1 °F 91% 30.21 in 7.0 mi SSE 6.9 mph - N/A   Overcast
11:55 AM 61.9 °F 58.3 °F 88% 30.20 in 10.0 mi South 8.1 mph - N/A   Overcast
12:15 PM 61.7 °F 58.3 °F 89% 30.19 in 10.0 mi South 6.9 mph - N/A   Overcast
12:35 PM 61.7 °F 58.8 °F 90% 30.18 in 7.0 mi South 6.9 mph - N/A   Overcast
1:15 PM 63.7 °F 59.2 °F 85% 30.16 in 10.0 mi South 8.1 mph - N/A   Overcast
1:35 PM 64.9 °F 59.7 °F 83% 30.15 in 10.0 mi South 6.9 mph - N/A   Overcast
1:55 PM 65.5 °F 59.9 °F 82% 30.14 in 10.0 mi South 8.1 mph - N/A   Overcast
2:15 PM 66.9 °F 60.4 °F 80% 30.13 in 10.0 mi SSE 6.9 mph - N/A   Mostly Cloudy
2:35 PM 67.1 °F 60.3 °F 79% 30.13 in 10.0 mi SSW 5.8 mph - N/A   Mostly Cloudy
2:55 PM 67.1 °F 60.4 °F 79% 30.13 in 10.0 mi SSW 6.9 mph - N/A   Overcast
3:15 PM 68.2 °F 60.8 °F 77% 30.13 in 10.0 mi SSE 6.9 mph - N/A   Mostly Cloudy
3:35 PM 68.7 °F 60.6 °F 75% 30.12 in 10.0 mi SSE 5.8 mph - N/A   Scattered Clouds
3:55 PM 68.9 °F 60.8 °F 75% 30.12 in 10.0 mi SE 6.9 mph - N/A   Scattered Clouds
4:15 PM 68.2 °F 60.4 °F 76% 30.11 in 10.0 mi SE 5.8 mph - N/A   Scattered Clouds
4:35 PM 68.2 °F 60.6 °F 77% 30.11 in 10.0 mi SSE 5.8 mph - N/A   Clear
4:55 PM 67.6 °F 60.8 °F 79% 30.11 in 10.0 mi SSE 3.5 mph - N/A   Clear
5:15 PM 66.6 °F 60.8 °F 82% 30.11 in 10.0 mi ESE 3.5 mph - N/A   Clear
5:35 PM 65.5 °F 60.8 °F 85% 30.11 in 10.0 mi ESE 3.5 mph - N/A   Clear
5:55 PM 64.6 °F 60.4 °F 86% 30.11 in 10.0 mi East 3.5 mph - N/A   Scattered Clouds
6:15 PM 64.9 °F 60.1 °F 84% 30.12 in 10.0 mi ESE 3.5 mph - N/A   Overcast
6:35 PM 64.4 °F 59.9 °F 85% 30.13 in 10.0 mi Calm Calm - N/A   Overcast
6:55 PM 64.4 °F 59.9 °F 85% 30.13 in 10.0 mi ESE 3.5 mph - N/A   Overcast
7:15 PM 64.4 °F 59.9 °F 85% 30.14 in 10.0 mi SE 4.6 mph - N/A   Overcast
7:35 PM 64.4 °F 60.3 °F 86% 30.13 in 10.0 mi SSE 6.9 mph - N/A   Overcast
7:55 PM 63.9 °F 60.4 °F 89% 30.13 in 10.0 mi SSE 6.9 mph - N/A   Scattered Clouds
8:15 PM 63.7 °F 60.3 °F 89% 30.13 in 10.0 mi SSE 10.4 mph - N/A   Clear
8:35 PM 63.5 °F 60.4 °F 90% 30.14 in 10.0 mi SSE 10.4 mph - N/A   Mostly Cloudy
8:55 PM 63.1 °F 60.1 °F 90% 30.13 in 10.0 mi SSE 9.2 mph - N/A   Mostly Cloudy
9:15 PM 62.6 °F 60.1 °F 91% 30.13 in 10.0 mi SSE 10.4 mph - N/A   Scattered Clouds
9:35 PM 62.2 °F 60.1 °F 93% 30.13 in 10.0 mi SSE 9.2 mph 16.1 mph N/A   Scattered Clouds
9:55 PM 62.1 °F 59.9 °F 93% 30.14 in 10.0 mi SSE 9.2 mph - N/A   Mostly Cloudy
10:15 PM 61.9 °F 59.9 °F 93% 30.14 in 10.0 mi SSE 9.2 mph - N/A   Scattered Clouds
10:35 PM 61.5 °F 59.7 °F 94% 30.15 in 10.0 mi SSE 9.2 mph - N/A   Scattered Clouds
10:55 PM 61.2 °F 59.5 °F 94% 30.14 in 7.0 mi SSE 9.2 mph - N/A   Scattered Clouds
11:15 PM 60.8 °F 59.2 °F 94% 30.15 in 7.0 mi SSE 8.1 mph - N/A   Mostly Cloudy
11:35 PM 61.2 °F 59.9 °F 96% 30.14 in 7.0 mi SSE 6.9 mph - N/A   Mostly Cloudy
11:55 PM 61.5 °F 59.7 °F 94% 30.15 in 7.0 mi South 9.2 mph - N/A   Overcast